Angleton, TX

10:08 PM CDT on April 19, 2018 (GMT -0500)
Brazoria County

Weather History for KLBX - October, 2013

Change the Weather History Date:

Wednesday, October 30, 2013

  Actual Average Record
Temperature  
Mean Temperature 78 °F -  
Max Temperature 82 °F 75 °F 87 °F (2016)
Min Temperature 75 °F 58 °F 39 °F (2012)
Cooling Degree Days 14    
Growing Degree Days 28 (Base 50)    
Moisture  
Dew Point 74 °F    
Average Humidity 88    
Maximum Humidity 94    
Minimum Humidity 82    
Precipitation  
Precipitation 0.50 in - - ()
Sea Level Pressure  
Sea Level Pressure 29.95 in    
Wind  
Wind Speed 14 mph (SSE)    
Max Wind Speed 24 mph    
Max Gust Speed 31 mph    
Visibility 8 miles    
Events Rain , Thunderstorm    
Averages and records for this station are not official NWS values.
T = Trace of Precipitation, MM = Missing Value Source: NWS Daily Summary

Daily Weather History Graph

Daily Weather History Graph

Search for Another Location

Airport or City:

Astronomy

Oct. 30, 2013 Rise Set
Actual Time 7:33 AM CDT 6:37 PM CDT
Civil Twilight 7:08 AM CDT 7:01 PM CDT
Nautical Twilight 6:40 AM CDT 7:29 PM CDT
Astronomical Twilight 6:13 AM CDT 7:57 PM CDT
Moon 3:41 AM CDT (10/30) 4:07 PM CDT (10/30)
Length of Visible Light 11h 52m
Length of Day
11h 04m
Waning Crescent, 17% of the Moon is Illuminated
Oct 30
Waning Crescent
Nov 3
New
Nov 9
First Quarter
Nov 17
Full
Nov 25
Last Quarter

Hourly Weather History & Observations

Time (CDT) Temp. Heat Index Dew Point Humidity Pressure Visibility Wind Dir Wind Speed Gust Speed Precip Events Conditions
12:53 AM 75.9 °F - 72.0 °F 87% 30.05 in 10.0 mi SE 11.5 mph - N/A   Mostly Cloudy
1:00 AM 75.2 °F - 71.6 °F 89% 30.05 in 10.0 mi SE 10.4 mph - N/A   Mostly Cloudy
1:46 AM 75.2 °F - 71.6 °F 89% 30.05 in 10.0 mi SE 13.8 mph - N/A   Mostly Cloudy
1:53 AM 75.9 °F - 71.1 °F 85% 30.05 in 10.0 mi SE 11.5 mph - N/A   Scattered Clouds
2:53 AM 75.9 °F - 71.1 °F 85% 30.04 in 10.0 mi SE 9.2 mph - N/A   Scattered Clouds
3:53 AM 75.9 °F - 71.1 °F 85% 30.02 in 10.0 mi SE 15.0 mph 20.7 mph N/A   Overcast
4:53 AM 77.0 °F - 71.1 °F 82% 30.01 in 10.0 mi SE 10.4 mph 19.6 mph N/A   Mostly Cloudy
5:48 AM 77.0 °F - 71.6 °F 83% 30.00 in 10.0 mi SE 12.7 mph - N/A   Overcast
5:53 AM 77.0 °F - 71.1 °F 82% 30.00 in 10.0 mi SE 10.4 mph - N/A   Overcast
6:22 AM 77.0 °F - 71.6 °F 83% 30.00 in 10.0 mi SE 8.1 mph - N/A   Overcast
6:53 AM 77.0 °F - 72.0 °F 84% 29.99 in 10.0 mi SE 10.4 mph - N/A   Overcast
7:17 AM 77.0 °F - 71.6 °F 83% 29.97 in 10.0 mi SE 13.8 mph - 0.00 in Rain Light Rain
7:53 AM 77.0 °F - 73.9 °F 90% 29.99 in 7.0 mi SE 12.7 mph 20.7 mph 0.00 in Rain Light Rain
8:08 AM 77.0 °F - 73.4 °F 89% 29.99 in 9.0 mi SSE 16.1 mph 24.2 mph 0.01 in Rain Light Rain
8:40 AM 77.0 °F - 75.2 °F 94% 30.00 in 8.0 mi SSE 13.8 mph 21.9 mph 0.01 in   Overcast
8:53 AM 78.1 °F - 73.9 °F 87% 30.01 in 9.0 mi SSE 16.1 mph 19.6 mph 0.01 in   Overcast
9:53 AM 79.0 °F - 75.0 °F 88% 30.02 in 10.0 mi SSE 11.5 mph - N/A   Overcast
10:53 AM 81.0 °F 86.7 °F 75.0 °F 82% 30.02 in 9.0 mi South 16.1 mph 21.9 mph 0.00 in Rain Light Rain
11:53 AM 79.0 °F - 75.9 °F 90% 30.01 in 4.0 mi South 17.3 mph - 0.01 in Rain Light Rain
12:02 PM 78.8 °F - 75.2 °F 89% 30.00 in 2.5 mi South 13.8 mph - 0.01 in Rain Rain
12:11 PM 78.8 °F - 75.2 °F 89% 30.00 in 5.0 mi SSE 13.8 mph - 0.01 in Rain Light Rain
12:18 PM 78.8 °F - 77.0 °F 94% 30.00 in 6.0 mi SSE 11.5 mph - 0.01 in Rain , Thunderstorm Light Rain
12:31 PM 78.8 °F - 75.2 °F 89% 29.99 in 8.0 mi SSE 12.7 mph - 0.01 in Rain Light Rain
12:53 PM 79.0 °F - 75.9 °F 90% 29.98 in 4.0 mi SSE 16.1 mph 21.9 mph 0.03 in Rain Light Rain
1:26 PM 78.8 °F - 75.2 °F 89% 29.95 in 5.0 mi South 19.6 mph 23.0 mph 0.01 in Rain Light Rain
1:44 PM 80.6 °F 87.1 °F 77.0 °F 89% 29.94 in 8.0 mi South 17.3 mph 26.5 mph 0.01 in   Overcast
1:53 PM 80.1 °F 85.8 °F 77.0 °F 90% 29.95 in 7.0 mi South 24.2 mph 31.1 mph 0.01 in Rain Light Rain
2:14 PM 75.2 °F - 73.4 °F 94% 29.93 in 2.0 mi South 17.3 mph 31.1 mph 0.07 in Rain Heavy Rain
2:27 PM 78.8 °F - 75.2 °F 89% 29.93 in 10.0 mi South 17.3 mph - 0.07 in   Overcast
2:45 PM 78.8 °F - 75.2 °F 89% 29.92 in 10.0 mi South 15.0 mph - 0.07 in   Overcast
2:53 PM 80.1 °F 85.8 °F 77.0 °F 90% 29.91 in 9.0 mi South 15.0 mph - 0.07 in   Overcast
3:35 PM 82.4 °F 90.9 °F 77.0 °F 84% 29.90 in 10.0 mi South 23.0 mph 28.8 mph N/A   Overcast
3:53 PM 82.0 °F 89.4 °F 75.9 °F 82% 29.90 in 10.0 mi South 23.0 mph 29.9 mph N/A   Overcast
4:53 PM 81.0 °F 86.7 °F 75.0 °F 82% 29.89 in 10.0 mi South 17.3 mph 24.2 mph N/A   Mostly Cloudy
5:48 PM 78.8 °F - 75.2 °F 89% 29.89 in 8.0 mi South 12.7 mph - 0.01 in   Overcast
5:53 PM 79.0 °F - 75.9 °F 90% 29.89 in 8.0 mi South 13.8 mph - 0.01 in   Overcast
6:05 PM 78.8 °F - 75.2 °F 89% 29.89 in 8.0 mi South 12.7 mph - N/A   Overcast
6:14 PM 78.8 °F - 75.2 °F 89% 29.89 in 8.0 mi South 12.7 mph - N/A   Overcast
6:22 PM 78.8 °F - 75.2 °F 89% 29.89 in 7.0 mi South 12.7 mph - N/A   Overcast
6:31 PM 78.8 °F - 75.2 °F 89% 29.89 in 7.0 mi South 10.4 mph - N/A   Overcast
6:53 PM 78.1 °F - 75.9 °F 93% 29.89 in 8.0 mi South 12.7 mph - 0.00 in Rain Light Rain
7:53 PM 78.1 °F - 75.0 °F 90% 29.90 in 9.0 mi South 11.5 mph - 0.00 in   Overcast
8:53 PM 78.1 °F - 75.0 °F 90% 29.91 in 9.0 mi South 15.0 mph 21.9 mph N/A   Overcast
9:53 PM 78.1 °F - 75.9 °F 93% 29.90 in 9.0 mi South 16.1 mph - N/A   Overcast
10:35 PM 78.8 °F - 75.2 °F 89% 29.89 in 1.8 mi South 24.2 mph 31.1 mph 0.20 in Rain Heavy Rain
10:43 PM 78.8 °F - 75.2 °F 89% 29.88 in 1.0 mi SSE 21.9 mph 28.8 mph 0.34 in Rain Heavy Rain
10:48 PM 78.8 °F - 75.2 °F 89% 29.88 in 3.0 mi SSE 20.7 mph 28.8 mph 0.34 in Rain Light Rain
10:53 PM 78.1 °F - 75.9 °F 93% 29.88 in 8.0 mi South 21.9 mph - 0.34 in Rain Light Rain
11:14 PM 78.8 °F - 75.2 °F 89% 29.88 in 8.0 mi South 16.1 mph - 0.02 in Rain Light Rain
11:40 PM 78.8 °F - 75.2 °F 89% 29.88 in 8.0 mi South 17.3 mph - 0.02 in   Overcast
11:53 PM 78.1 °F - 75.9 °F 93% 29.88 in 8.0 mi South 16.1 mph - 0.02 in   Overcast